Temp
-27 -26 -26 -26 -25 -24 -24 -25 -25 -25 -25 -25 -25 -25 -25 -25 -25 -26 -25 -25 -24 -24 -23 -23 -23 -22 -23 -23 -22 -22 -23 -22 -22 -22 -21 -21 -20 -20 -20 -20 -20 -21 -21 -19 -19 -19 -17 -18 -18 -17 -17 -17 -17 -17
-26 -26 -26 -26 -25 -25 -25 -25 -25 -25 -25 -25 -26 -26 -26 -26 -27 -26 -26 -25 -24 -25 -25 -25 -24 -24 -24 -24 -24 -24 -24 -24 -23 -23 -22 -22 -21 -21 -21 -20 -21 -20 -20 -21 -19 -19 -18 -18 -18 -17 -17 -17 -18 -17
-26 -26 -26 -26 -26 -25 -25 -25 -25 -25 -26 -27 -27 -27 -27 -27 -27 -27 -27 -26 -25 -25 -26 -25 -25 -25 -25 -25 -24 -24 -25 -24 -24 -23 -23 -22 -22 -21 -21 -20 -21 -20 -21 -20 -20 -19 -20 -19 -19 -18 -17 -17 -17 -17
-26 -26 -26 -26 -25 -26 -26 -26 -26 -26 -28 -28 -28 -28 -27 -28 -27 -27 -27 -27 -27 -26 -25 -25 -25 -25 -25 -25 -25 -25 -25 -24 -24 -24 -23 -23 -22 -22 -21 -21 -21 -21 -22 -21 -19 -20 -20 -21 -20 -19 -18 -17 -18 -17
-26 -26 -26 -26 -26 -27 -27 -28 -27 -27 -27 -28 -28 -28 -28 -28 -28 -28 -27 -27 -27 -26 -26 -26 -25 -25 -25 -25 -25 -25 -25 -24 -24 -24 -23 -23 -22 -22 -21 -22 -22 -22 -22 -21 -21 -21 -20 -20 -19 -19 -18 -18 -17 -17
-26 -26 -25 -25 -26 -28 -28 -28 -27 -27 -28 -28 -28 -28 -28 -28 -28 -28 -28 -27 -26 -26 -25 -26 -25 -25 -25 -25 -25 -25 -25 -24 -24 -24 -24 -23 -23 -22 -23 -22 -22 -22 -22 -22 -21 -20 -20 -19 -19 -20 -19 -18 -18 -17
-26 -26 -26 -26 -26 -28 -28 -28 -28 -28 -28 -28 -28 -28 -27 -27 -28 -28 -27 -26 -26 -25 -25 -25 -25 -26 -25 -25 -25 -25 -25 -25 -24 -24 -24 -23 -23 -23 -22 -22 -22 -22 -22 -22 -21 -20 -19 -19 -19 -19 -19 -19 -18 -18
-26 -26 -26 -26 -26 -27 -28 -27 -27 -27 -27 -28 -28 -28 -28 -28 -28 -28 -27 -26 -26 -26 -26 -26 -26 -26 -25 -25 -26 -25 -25 -25 -24 -24 -23 -23 -24 -23 -23 -22 -22 -22 -22 -22 -21 -20 -20 -20 -20 -20 -19 -19 -19 -19
-26 -26 -26 -26 -26 -26 -27 -27 -27 -27 -27 -27 -28 -28 -28 -28 -27 -26 -26 -26 -26 -26 -26 -25 -25 -25 -26 -26 -25 -25 -25 -25 -24 -24 -24 -23 -23 -23 -22 -22 -22 -22 -22 -21 -21 -21 -21 -21 -20 -20 -20 -20 -20 -19
-26 -26 -26 -26 -26 -26 -26 -27 -27 -27 -27 -27 -27 -27 -27 -27 -26 -26 -27 -26 -26 -26 -26 -26 -25 -25 -25 -26 -25 -25 -25 -24 -24 -24 -24 -24 -23 -23 -23 -22 -22 -22 -21 -21 -22 -21 -21 -20 -20 -20 -20 -20 -21 -21
-26 -26 -26 -26 -26 -26 -26 -26 -26 -26 -26 -27 -27 -27 -27 -26 -26 -26 -26 -26 -26 -26 -26 -26 -25 -25 -25 -26 -26 -25 -25 -25 -25 -25 -25 -24 -23 -22 -22 -22 -21 -22 -22 -22 -21 -21 -21 -20 -20 -20 -20 -20 -20 -20
-25 -25 -25 -26 -26 -26 -26 -26 -26 -26 -26 -26 -26 -26 -26 -26 -26 -26 -26 -26 -26 -26 -26 -25 -25 -25 -25 -26 -26 -25 -25 -24 -25 -25 -25 -24 -23 -23 -22 -22 -22 -22 -22 -22 -22 -21 -21 -21 -21 -20 -20 -20 -20 -19
-25 -25 -25 -25 -25 -25 -25 -26 -26 -26 -26 -26 -26 -26 -26 -26 -26 -26 -25 -26 -25 -25 -25 -25 -25 -25 -25 -25 -25 -25 -25 -24 -24 -24 -24 -23 -23 -23 -22 -22 -22 -22 -22 -22 -21 -21 -21 -21 -20 -20 -19 -19 -19 -19
-25 -25 -25 -26 -25 -25 -25 -25 -25 -26 -25 -25 -25 -25 -25 -25 -25 -25 -25 -26 -26 -26 -25 -24 -24 -24 -25 -25 -25 -25 -24 -24 -24 -24 -24 -23 -23 -22 -22 -22 -21 -21 -22 -22 -21 -21 -20 -20 -20 -19 -19 -19 -19 -19
-25 -25 -25 -25 -25 -26 -26 -26 -26 -26 -26 -26 -26 -25 -25 -25 -25 -25 -25 -25 -25 -24 -24 -24 -24 -24 -24 -24 -24 -23 -23 -23 -23 -23 -23 -22 -22 -21 -21 -21 -21 -22 -22 -22 -22 -21 -21 -21 -20 -20 -20 -20 -20 -20
-25 -25 -25 -25 -25 -25 -26 -26 -26 -26 -27 -27 -26 -25 -25 -25 -24 -24 -25 -24 -24 -24 -24 -24 -24 -24 -24 -23 -23 -23 -22 -23 -22 -22 -22 -22 -22 -22 -22 -22 -22 -22 -22 -22 -21 -21 -20 -20 -20 -20 -20 -20 -20 -20
-25 -24 -24 -25 -25 -25 -25 -26 -26 -27 -27 -27 -27 -26 -25 -25 -24 -25 -25 -24 -23 -23 -23 -23 -23 -23 -23 -23 -22 -22 -22 -22 -22 -22 -22 -22 -22 -21 -22 -22 -22 -22 -22 -22 -22 -21 -21 -21 -21 -21 -21 -21 -21 -21
-24 -24 -23 -24 -24 -25 -25 -25 -26 -26 -26 -26 -26 -26 -25 -25 -24 -24 -23 -23 -23 -23 -23 -23 -23 -23 -22 -22 -22 -22 -22 -22 -22 -22 -22 -22 -22 -22 -22 -22 -22 -22 -22 -22 -22 -22 -22 -22 -22 -22 -22 -22 -22 -22
-23 -23 -23 -23 -23 -24 -24 -24 -24 -24 -24 -24 -25 -25 -25 -24 -23 -23 -23 -23 -23 -23 -23 -23 -23 -23 -22 -22 -22 -22 -22 -22 -22 -22 -22 -22 -22 -22 -23 -23 -23 -23 -23 -23 -23 -23 -23 -23 -23 -23 -23 -23 -23 -23
-23 -23 -23 -23 -22 -23 -22 -23 -23 -22 -22 -23 -23 -23 -22 -23 -23 -23 -23 -23 -23 -23 -23 -23 -23 -23 -22 -23 -23 -23 -23 -23 -23 -23 -23 -23 -23 -23 -23 -23 -23 -23 -23 -23 -23 -23 -24 -23 -23 -24 -24 -24 -24 -24
-23 -22 -23 -22 -23 -23 -22 -23 -22 -23 -23 -22 -23 -23 -23 -23 -23 -23 -23 -23 -23 -24 -24 -23 -23 -23 -23 -22 -22 -22 -22 -22 -22 -23 -23 -23 -23 -23 -23 -23 -23 -24 -24 -24 -24 -24 -24 -24 -25 -25 -25 -26 -26 -26
-22 -22 -22 -22 -24 -23 -23 -23 -23 -23 -23 -23 -23 -24 -23 -23 -24 -24 -23 -23 -24 -23 -23 -23 -23 -23 -23 -23 -23 -23 -23 -24 -24 -24 -24 -24 -24 -25 -25 -26 -26 -26 -27 -27 -27 -27 -27 -28 -28 -28 -28 -28 -29 -29
-23 -23 -23 -23 -23 -23 -23 -24 -24 -23 -23 -23 -23 -23 -23 -23 -23 -23 -24 -24 -24 -23 -23 -24 -24 -24 -24 -24 -24 -24 -24 -24 -25 -25 -25 -25 -26 -27 -27 -28 -29 -29 -30 -30 -30 -30 -30 -30 -30 -30 -30 -30 -31 -31
-23 -23 -23 -24 -23 -23 -24 -24 -24 -24 -24 -24 -24 -24 -24 -24 -24 -24 -24 -24 -24 -24 -24 -24 -25 -25 -25 -25 -25 -25 -25 -25 -26 -27 -28 -28 -29 -29 -30 -30 -30 -31 -31 -32 -32 -32 -32 -32 -32 -32 -32 -32 -32 -32
-23 -23 -23 -24 -24 -24 -24 -24 -24 -24 -24 -24 -24 -24 -25 -24 -25 -25 -25 -25 -25 -25 -25 -26 -26 -26 -26 -26 -26 -26 -27 -28 -29 -30 -30 -31 -31 -31 -32 -32 -32 -33 -33 -33 -33 -33 -33 -33 -33 -33 -33 -33 -33 -33
-24 -24 -24 -24 -25 -24 -25 -25 -25 -25 -25 -25 -25 -25 -25 -25 -25 -26 -26 -26 -26 -26 -26 -26 -26 -26 -26 -27 -28 -29 -30 -31 -31 -31 -32 -33 -33 -33 -33 -33 -33 -34 -34 -34 -34 -34 -34 -34 -34 -33 -33 -33 -33 -33
-25 -25 -25 -25 -25 -25 -25 -25 -25 -25 -25 -25 -26 -26 -26 -26 -26 -26 -27 -27 -27 -27 -27 -27 -27 -28 -29 -29 -30 -31 -32 -32 -32 -33 -33 -33 -33 -33 -33 -33 -34 -34 -34 -34 -34 -34 -34 -34 -34 -34 -34 -33 -33 -34
-26 -25 -25 -26 -25 -25 -25 -26 -26 -26 -26 -26 -26 -26 -27 -27 -27 -27 -27 -28 -28 -28 -28 -28 -29 -29 -29 -31 -31 -32 -32 -33 -33 -33 -33 -33 -33 -34 -34 -34 -34 -34 -34 -34 -34 -34 -34 -34 -34 -34 -34 -34 -34 -34
-26 -26 -26 -26 -26 -26 -26 -26 -26 -26 -27 -27 -27 -27 -27 -28 -28 -28 -28 -28 -28 -28 -29 -29 -29 -30 -31 -32 -33 -33 -33 -34 -35 -35 -34 -34 -34 -34 -34 -34 -34 -34 -34 -34 -34 -34 -34 -34 -34 -34 -34 -34 -34 -34
-26 -27 -26 -26 -26 -26 -27 -27 -27 -27 -27 -27 -27 -28 -28 -28 -28 -28 -28 -29 -29 -29 -29 -29 -30 -31 -32 -32 -33 -33 -34 -35 -35 -35 -35 -35 -35 -35 -34 -34 -34 -34 -34 -34 -34 -34 -34 -34 -34 -34 -34 -34 -35 -35
-27 -27 -27 -27 -27 -27 -27 -27 -27 -27 -27 -28 -28 -28 -28 -29 -29 -29 -29 -29 -29 -30 -30 -30 -31 -32 -32 -33 -33 -33 -34 -34 -35 -35 -35 -35 -34 -34 -34 -34 -34 -34 -34 -34 -34 -34 -34 -34 -34 -34 -35 -35 -35 -35
-27 -27 -27 -27 -27 -27 -27 -27 -27 -28 -28 -28 -28 -29 -29 -29 -29 -29 -30 -30 -30 -30 -31 -32 -32 -33 -33 -33 -34 -34 -34 -34 -34 -34 -34 -34 -34 -34 -34 -34 -34 -34 -34 -34 -34 -34 -34 -34 -35 -35 -35 -35 -35 -35
-27 -27 -27 -28 -28 -28 -28 -28 -28 -28 -28 -29 -29 -29 -29 -29 -30 -30 -30 -31 -31 -31 -32 -32 -33 -33 -34 -34 -34 -34 -34 -34 -34 -34 -33 -34 -34 -34 -34 -34 -34 -34 -34 -34 -34 -34 -35 -35 -35 -35 -35 -36 -36 -36
Height
5329 5326 5323 5324 5327 5329 5331 5334 5338 5340 5343 5347 5352 5358 5364 5371 5379 5390 5406 5413 5424 5431 5451 5455 5468 5477 5485 5491 5501 5512 5510 5516 5521 5526 5535 5543 5548 5551 5555 5559 5563 5566 5571 5579 5580 5586 5589 5592 5599 5603 5608 5609 5617 5623
5324 5320 5317 5315 5315 5316 5319 5320 5320 5321 5323 5326 5331 5338 5346 5355 5364 5375 5386 5403 5415 5421 5437 5443 5456 5467 5474 5484 5491 5494 5501 5506 5513 5518 5525 5532 5536 5541 5547 5549 5553 5559 5568 5569 5574 5578 5577 5586 5588 5596 5599 5601 5605 5610
5319 5313 5310 5309 5308 5306 5305 5304 5302 5301 5301 5303 5311 5321 5331 5343 5356 5364 5376 5390 5400 5413 5427 5431 5446 5460 5465 5475 5482 5487 5492 5496 5501 5508 5515 5520 5525 5533 5537 5542 5546 5551 5558 5558 5566 5571 5570 5576 5581 5586 5590 5591 5594 5595
5318 5313 5309 5306 5302 5297 5292 5288 5284 5280 5279 5282 5292 5305 5322 5334 5345 5356 5372 5386 5396 5408 5418 5432 5442 5448 5457 5465 5473 5479 5484 5487 5493 5498 5504 5510 5518 5525 5529 5530 5536 5546 5551 5555 5557 5560 5565 5568 5573 5578 5580 5582 5584 5587
5319 5314 5310 5304 5296 5287 5280 5275 5274 5273 5267 5268 5281 5296 5316 5330 5341 5354 5370 5383 5394 5408 5418 5420 5434 5442 5451 5459 5466 5471 5476 5481 5487 5491 5495 5501 5509 5516 5518 5522 5528 5535 5540 5546 5550 5553 5557 5562 5567 5568 5571 5573 5574 5579
5326 5320 5314 5306 5295 5288 5283 5280 5279 5276 5270 5273 5285 5302 5317 5329 5339 5350 5364 5378 5393 5404 5414 5421 5429 5438 5445 5452 5459 5464 5470 5474 5478 5483 5488 5495 5503 5507 5509 5516 5521 5526 5531 5533 5537 5543 5548 5555 5559 5561 5564 5566 5567 5569
5333 5328 5321 5313 5303 5295 5291 5289 5289 5287 5286 5291 5300 5313 5324 5335 5347 5357 5369 5387 5394 5402 5412 5420 5427 5434 5442 5449 5454 5459 5464 5469 5472 5476 5482 5489 5494 5499 5502 5507 5514 5519 5523 5528 5532 5535 5541 5548 5549 5553 5555 5556 5557 5559
5339 5336 5331 5324 5317 5308 5305 5305 5303 5302 5303 5309 5315 5323 5333 5343 5353 5363 5373 5384 5396 5403 5412 5420 5426 5434 5441 5446 5451 5455 5458 5462 5467 5472 5477 5481 5486 5490 5493 5499 5507 5512 5517 5520 5522 5528 5533 5537 5540 5543 5546 5547 5549 5549
5345 5343 5340 5336 5332 5327 5322 5321 5321 5320 5321 5325 5329 5336 5343 5352 5361 5369 5381 5392 5402 5409 5414 5421 5427 5433 5439 5443 5446 5450 5454 5458 5461 5465 5469 5474 5478 5483 5488 5494 5500 5506 5510 5513 5515 5519 5525 5529 5532 5535 5536 5536 5537 5538
5352 5350 5348 5346 5344 5342 5341 5339 5339 5338 5340 5341 5345 5348 5355 5363 5370 5380 5389 5396 5405 5412 5417 5422 5427 5432 5437 5440 5443 5447 5449 5452 5454 5460 5463 5464 5470 5475 5481 5489 5495 5500 5503 5505 5508 5513 5516 5518 5522 5525 5526 5526 5527 5529
5358 5357 5356 5355 5354 5353 5353 5353 5353 5353 5355 5357 5361 5364 5367 5373 5381 5389 5396 5402 5408 5414 5418 5423 5428 5431 5435 5438 5438 5441 5445 5445 5448 5454 5458 5460 5466 5472 5478 5484 5487 5490 5494 5498 5501 5505 5507 5509 5512 5515 5516 5517 5518 5518
5363 5362 5362 5363 5363 5362 5362 5363 5364 5365 5366 5369 5373 5376 5380 5385 5390 5396 5400 5406 5410 5415 5419 5423 5427 5430 5432 5433 5434 5438 5443 5445 5447 5451 5452 5454 5461 5466 5471 5477 5479 5483 5487 5491 5494 5496 5498 5500 5503 5505 5506 5507 5508 5508
5366 5366 5366 5366 5367 5368 5369 5370 5372 5373 5376 5379 5382 5385 5388 5393 5396 5400 5403 5408 5411 5416 5420 5422 5425 5427 5431 5432 5432 5436 5439 5442 5446 5446 5447 5450 5458 5464 5469 5472 5476 5479 5481 5483 5485 5487 5489 5490 5492 5495 5495 5496 5496 5496
5369 5368 5367 5368 5368 5369 5370 5372 5374 5377 5380 5383 5387 5390 5394 5396 5400 5403 5406 5408 5414 5417 5418 5422 5425 5427 5430 5431 5432 5435 5438 5441 5442 5444 5446 5453 5460 5463 5467 5468 5471 5473 5474 5476 5477 5478 5478 5480 5482 5483 5483 5483 5483 5484
5374 5371 5370 5370 5370 5371 5372 5372 5373 5376 5379 5384 5388 5391 5395 5398 5401 5404 5407 5411 5415 5417 5421 5424 5426 5428 5430 5432 5434 5436 5438 5439 5441 5444 5446 5450 5454 5458 5461 5463 5465 5467 5468 5469 5469 5469 5470 5471 5472 5473 5473 5472 5472 5472
5377 5375 5374 5374 5374 5374 5374 5373 5375 5376 5378 5384 5389 5394 5398 5402 5405 5407 5410 5413 5417 5421 5425 5427 5429 5431 5433 5435 5436 5437 5439 5441 5443 5444 5446 5449 5451 5454 5456 5458 5459 5460 5461 5461 5461 5461 5461 5461 5461 5461 5461 5460 5459 5458
5381 5380 5379 5379 5378 5378 5378 5378 5378 5380 5382 5386 5390 5395 5400 5405 5409 5410 5414 5419 5424 5427 5429 5431 5433 5433 5436 5435 5435 5436 5438 5438 5440 5441 5442 5446 5448 5450 5449 5450 5452 5453 5454 5454 5454 5452 5451 5451 5450 5449 5449 5448 5447 5445
5386 5385 5385 5385 5385 5384 5384 5384 5384 5384 5385 5387 5391 5397 5404 5408 5412 5416 5421 5424 5428 5430 5433 5434 5435 5436 5437 5437 5437 5439 5440 5440 5441 5441 5442 5444 5445 5444 5445 5446 5446 5446 5446 5445 5444 5443 5442 5441 5440 5439 5438 5437 5435 5433
5393 5393 5392 5392 5393 5393 5392 5392 5393 5392 5394 5396 5399 5403 5407 5412 5417 5423 5427 5430 5432 5434 5435 5435 5436 5436 5436 5437 5438 5438 5438 5439 5439 5439 5439 5438 5438 5438 5439 5439 5438 5437 5437 5436 5435 5433 5432 5431 5429 5428 5426 5424 5422 5420
5400 5401 5400 5400 5400 5402 5401 5401 5405 5406 5405 5409 5411 5415 5418 5422 5425 5428 5431 5433 5434 5435 5436 5437 5437 5438 5437 5437 5437 5437 5437 5436 5436 5436 5436 5435 5434 5434 5433 5431 5430 5429 5428 5426 5424 5423 5421 5419 5417 5415 5413 5410 5407 5405
5408 5408 5409 5408 5409 5413 5412 5412 5413 5413 5414 5416 5419 5422 5425 5427 5429 5432 5434 5435 5436 5435 5438 5439 5438 5437 5436 5435 5434 5433 5433 5432 5432 5430 5429 5427 5426 5425 5422 5420 5418 5416 5414 5411 5409 5407 5405 5403 5401 5398 5395 5392 5389 5386
5414 5415 5416 5415 5419 5421 5420 5420 5422 5422 5423 5424 5426 5428 5430 5431 5433 5434 5435 5436 5438 5439 5440 5438 5437 5436 5435 5433 5431 5430 5428 5426 5424 5422 5420 5417 5414 5412 5409 5406 5404 5401 5398 5395 5393 5390 5388 5386 5383 5380 5378 5375 5372 5370
5419 5420 5421 5423 5426 5425 5427 5427 5428 5430 5431 5432 5433 5435 5435 5436 5437 5438 5438 5439 5439 5438 5436 5435 5433 5431 5429 5427 5425 5422 5419 5416 5413 5409 5405 5402 5398 5395 5392 5389 5386 5383 5381 5378 5376 5375 5373 5371 5368 5366 5363 5361 5357 5354
5423 5425 5425 5427 5430 5430 5432 5432 5434 5435 5435 5436 5437 5438 5438 5438 5438 5437 5437 5437 5435 5434 5432 5430 5428 5425 5423 5420 5416 5412 5408 5403 5398 5393 5388 5384 5381 5378 5375 5371 5368 5366 5364 5362 5359 5358 5357 5355 5354 5352 5350 5347 5344 5340
5427 5428 5429 5430 5432 5433 5434 5435 5436 5437 5437 5438 5438 5438 5438 5438 5437 5436 5435 5433 5431 5429 5426 5423 5420 5416 5412 5407 5402 5397 5391 5386 5380 5376 5371 5367 5364 5361 5358 5355 5353 5351 5349 5348 5346 5343 5342 5341 5339 5337 5335 5333 5330 5327
5427 5429 5431 5432 5433 5435 5435 5436 5437 5437 5438 5438 5438 5438 5437 5436 5434 5432 5430 5428 5425 5422 5418 5415 5410 5406 5400 5394 5388 5382 5376 5371 5366 5362 5358 5353 5350 5348 5347 5345 5343 5341 5338 5336 5334 5333 5331 5330 5328 5327 5325 5323 5321 5319
5427 5429 5431 5432 5434 5435 5436 5436 5437 5437 5437 5437 5436 5435 5433 5431 5429 5427 5424 5421 5418 5414 5410 5406 5401 5395 5388 5380 5372 5366 5361 5357 5353 5350 5347 5345 5343 5341 5339 5337 5335 5333 5331 5329 5327 5326 5324 5322 5321 5320 5318 5316 5314 5312
5427 5429 5431 5433 5434 5434 5435 5435 5435 5435 5434 5433 5432 5430 5428 5426 5424 5421 5418 5415 5411 5407 5402 5396 5389 5382 5374 5366 5359 5353 5348 5344 5341 5339 5338 5336 5335 5333 5332 5330 5328 5326 5325 5323 5321 5320 5319 5318 5316 5315 5313 5310 5308 5304
5426 5428 5430 5431 5432 5433 5432 5433 5432 5431 5430 5429 5427 5425 5423 5420 5418 5415 5412 5408 5404 5399 5393 5386 5378 5368 5360 5353 5347 5341 5337 5333 5330 5328 5328 5327 5326 5325 5324 5322 5321 5320 5320 5319 5318 5317 5316 5314 5312 5310 5307 5304 5301 5297
5425 5427 5428 5429 5430 5429 5429 5429 5428 5426 5425 5423 5422 5419 5418 5414 5411 5408 5404 5400 5396 5390 5383 5375 5365 5358 5351 5346 5340 5335 5330 5327 5325 5323 5322 5321 5320 5319 5319 5319 5318 5318 5317 5316 5315 5314 5312 5310 5307 5304 5301 5298 5294 5290
5423 5424 5425 5426 5426 5425 5424 5424 5422 5421 5419 5418 5416 5414 5411 5408 5404 5400 5396 5391 5386 5379 5372 5363 5355 5349 5345 5342 5339 5334 5330 5326 5323 5321 5320 5319 5318 5318 5317 5317 5316 5315 5314 5313 5311 5309 5307 5304 5302 5298 5295 5291 5287 5283
5420 5421 5422 5421 5421 5420 5419 5418 5416 5415 5414 5412 5409 5407 5404 5400 5397 5393 5388 5383 5377 5371 5363 5356 5350 5346 5341 5338 5335 5332 5329 5326 5324 5322 5320 5319 5318 5317 5316 5315 5314 5312 5311 5309 5307 5304 5302 5299 5296 5292 5288 5284 5280 5275
5416 5416 5416 5415 5415 5414 5413 5412 5411 5409 5407 5405 5402 5400 5396 5392 5388 5384 5379 5374 5368 5362 5355 5350 5345 5341 5337 5334 5331 5328 5326 5324 5322 5320 5319 5318 5316 5315 5313 5312 5310 5309 5306 5304 5302 5299 5296 5293 5289 5285 5281 5277 5272 5267
Wind_Speed
20 19 20 29 35 39 39 36 36 41 44 46 49 50 49 50 54 57 57 58 65 68 54 55 52 51 50 50 49 46 48 50 49 49 46 41 46 46 41 42 46 52 50 55 56 35 50 51 43 43 42 47 45 46
23 19 19 16 19 25 32 37 39 42 46 48 51 51 49 46 45 47 60 60 61 65 61 60 54 44 39 36 35 41 45 48 49 51 51 47 50 49 40 43 50 53 46 36 47 23 26 46 42 39 36 35 39 38
18 14 12 12 15 20 25 28 32 35 42 44 46 41 38 40 45 45 38 47 55 65 59 45 52 48 47 39 33 34 37 41 45 50 50 50 49 44 40 41 43 49 49 32 48 23 14 23 37 31 36 33 34 40
18 14 11 11 13 18 23 27 30 29 31 37 41 38 41 38 42 51 44 36 37 37 42 45 45 40 35 41 37 36 39 36 35 39 42 49 45 41 37 39 39 42 53 49 41 35 31 35 28 35 41 43 46 38
22 15 11 14 18 17 11 6 5 4 7 28 31 42 41 37 37 39 43 41 38 33 29 30 33 37 35 35 31 32 35 29 31 37 36 34 37 36 40 35 29 36 39 37 43 45 44 43 33 29 40 43 40 43
26 26 25 30 28 20 15 13 10 13 19 32 41 42 37 39 38 42 48 48 41 34 18 29 29 30 36 39 33 30 35 37 39 37 34 35 31 35 34 29 27 36 34 33 39 45 44 41 37 30 33 41 43 47
20 24 26 32 34 23 25 22 25 25 31 39 40 42 39 33 39 34 47 46 49 31 28 29 31 35 34 28 28 26 26 31 33 34 37 39 38 30 33 24 32 31 32 34 35 37 41 36 37 36 39 32 40 39
15 22 26 31 37 36 33 39 36 36 39 39 38 37 38 37 34 31 39 51 54 19 22 25 23 31 30 29 25 31 31 28 27 33 36 40 31 31 40 39 39 35 33 30 34 35 32 31 34 33 35 35 35 35
12 15 19 25 34 44 42 39 40 39 46 41 34 35 36 35 33 38 46 43 42 25 21 22 27 24 23 22 24 28 31 32 32 32 35 35 32 35 34 39 37 37 37 34 33 31 30 26 25 31 32 30 34 39
15 13 15 19 26 35 40 41 41 40 43 35 33 35 40 32 39 52 49 45 44 34 20 18 20 21 21 19 19 24 28 32 36 32 34 38 36 38 39 37 36 33 30 27 23 29 30 25 24 29 30 31 33 31
14 16 18 19 21 25 28 33 34 32 34 34 34 31 36 38 40 41 42 40 34 35 28 21 20 19 17 17 21 25 21 19 27 26 31 45 39 39 35 36 37 32 36 35 30 34 32 28 27 29 30 31 30 32
12 12 13 14 16 18 20 22 24 25 25 26 27 30 34 33 31 31 31 29 28 25 22 19 17 14 14 16 13 19 12 17 19 18 27 43 41 27 37 24 27 28 29 31 34 35 33 31 31 32 35 34 33 34
10 9 9 10 11 13 14 15 17 20 20 23 25 27 27 26 27 27 25 23 21 17 16 17 17 12 14 11 12 21 23 17 17 18 30 44 39 22 42 30 27 31 31 31 33 33 31 30 32 31 31 36 40 42
22 18 13 14 15 15 14 13 12 12 14 18 18 18 18 20 18 18 19 19 14 12 13 17 17 14 4 1 11 17 24 16 16 15 18 31 27 29 25 23 26 34 29 30 34 36 36 33 34 37 42 47 47 47
19 16 13 14 13 13 13 13 13 14 15 15 16 17 17 16 15 16 16 16 22 22 19 12 6 8 7 11 20 19 18 17 15 9 12 29 27 28 25 27 32 31 31 32 30 27 28 31 33 35 38 40 41 43
24 23 16 14 13 11 9 15 16 16 18 21 19 18 16 15 12 11 13 23 26 21 18 15 15 11 9 9 16 22 15 11 13 9 11 12 15 21 27 30 30 33 32 30 28 33 32 32 33 35 37 37 38 39
22 21 22 16 14 15 14 12 14 17 20 25 26 24 20 15 13 12 24 28 23 16 18 15 11 10 8 5 6 9 7 2 6 9 10 19 13 21 28 28 30 32 36 40 36 31 27 28 28 30 33 35 36 37
25 22 21 24 26 28 32 28 25 24 22 21 24 26 21 17 19 33 31 23 17 14 13 9 9 7 8 4 2 4 2 2 4 4 7 10 11 11 12 13 19 22 23 25 26 27 28 29 32 35 37 38 40 41
28 25 24 24 26 26 30 32 35 40 41 37 33 31 33 35 34 29 23 17 11 9 7 9 7 7 7 6 2 3 6 8 12 13 17 16 15 15 15 15 17 20 22 25 26 27 29 32 34 37 38 40 41 42
26 26 27 28 27 25 27 26 27 31 35 35 34 34 31 28 21 14 10 10 10 9 10 9 9 8 9 10 11 12 10 10 11 12 14 15 17 20 23 26 29 32 34 35 36 38 39 40 40 41 42 44 45 47
22 21 23 25 28 24 26 25 25 27 28 28 26 24 23 24 22 20 20 16 17 17 12 8 7 5 5 9 12 14 15 17 19 22 24 26 28 31 35 38 41 42 43 43 43 44 45 46 46 47 47 47 49 49
18 18 19 24 24 23 25 26 27 25 24 25 27 25 21 20 20 20 18 17 11 7 4 4 7 10 13 16 19 21 23 25 28 30 33 36 37 39 41 42 42 43 43 44 46 46 47 47 47 48 48 49 50 51
16 15 20 22 19 20 23 24 25 23 25 26 25 22 21 18 14 13 13 6 3 3 7 10 13 16 19 22 24 27 31 34 38 41 44 45 45 45 45 45 45 43 44 45 46 47 47 48 48 48 48 48 48 49
14 15 19 18 14 17 18 19 17 15 15 16 16 12 11 10 8 7 7 7 9 11 14 16 18 21 24 27 32 36 40 44 47 49 47 45 43 41 41 41 42 42 42 42 42 41 41 40 40 40 41 41 42 42
15 15 15 15 13 12 11 11 12 10 10 9 8 6 6 6 8 10 11 13 15 17 20 23 26 31 36 41 45 48 50 50 46 43 42 40 37 34 32 32 34 35 37 38 38 38 38 37 37 36 35 35 34 33
13 14 15 12 10 8 7 7 5 5 5 4 5 6 8 11 14 15 17 19 21 24 28 32 37 42 46 50 53 54 47 42 40 38 33 29 26 24 23 24 24 25 26 26 26 26 26 26 25 24 23 22 21 21
18 17 15 12 9 6 4 3 2 3 4 6 9 12 15 17 19 20 22 24 26 30 36 41 45 49 53 56 50 44 42 39 35 30 26 23 21 21 21 20 20 19 19 19 18 18 18 18 16 14 14 17 19 22
19 16 12 8 5 3 2 2 4 6 9 11 15 17 20 22 23 25 26 28 32 37 43 47 52 56 54 49 45 42 37 33 31 28 26 25 24 23 23 22 21 21 20 18 14 10 10 11 13 15 17 20 22 24
20 15 11 8 7 6 6 7 9 10 13 17 19 21 24 25 26 28 29 32 38 43 47 53 56 52 48 42 38 36 33 29 26 24 22 20 19 18 17 17 14 9 7 8 7 9 12 13 16 18 20 22 24 26
18 14 12 10 10 10 11 12 13 15 18 21 23 25 27 29 30 31 33 38 43 46 51 56 51 44 38 33 28 26 23 19 16 15 14 13 12 9 5 5 6 5 7 9 10 12 14 17 19 20 22 24 26 28
17 15 13 15 14 14 15 16 18 20 23 26 27 28 31 34 34 36 38 41 45 48 52 49 43 38 32 21 21 22 20 16 12 9 7 5 6 5 4 4 7 9 10 12 14 16 18 20 22 23 25 27 29 31
18 17 18 16 17 17 18 21 24 25 28 30 30 32 35 37 37 38 39 42 44 48 48 42 36 32 25 21 21 20 17 15 12 9 7 5 5 6 8 9 11 12 14 15 17 18 20 22 24 26 28 30 32 33
21 20 19 19 20 22 25 27 28 30 32 31 32 35 38 37 37 38 39 40 43 45 43 38 33 30 23 20 21 19 14 11 8 8 8 9 10 11 12 13 15 16 17 18 19 21 23 25 27 29 31 33 35 37
Wind_Direction
331 319 297 264 255 256 254 248 253 253 249 248 247 247 244 244 238 225 224 222 220 222 221 227 225 226 226 230 232 232 232 234 234 236 242 246 247 247 248 245 233 234 241 240 240 260 238 236 243 243 238 241 234 234
312 303 301 285 271 257 248 261 260 257 254 249 245 244 243 238 231 227 218 215 217 216 220 222 223 223 227 224 225 230 236 237 237 239 242 241 239 241 245 248 244 236 239 253 240 245 212 228 233 241 250 244 234 236
338 323 294 283 273 266 260 260 264 268 259 245 230 224 227 218 212 210 217 212 213 210 212 223 223 225 222 222 221 226 231 237 237 233 231 232 233 237 242 243 243 237 231 246 240 237 259 241 234 236 235 236 242 239
3 5 3 352 316 285 272 275 274 267 252 237 226 218 210 206 209 198 198 202 199 206 218 221 218 213 214 215 222 227 225 227 220 224 228 226 227 234 237 248 246 239 238 243 235 254 264 270 271 252 246 243 246 248
21 25 18 358 345 332 331 304 150 175 234 201 193 182 190 189 190 190 188 192 191 188 178 198 216 206 208 197 209 219 213 210 212 217 220 221 223 229 228 229 248 240 242 249 250 256 258 262 263 262 245 247 237 248
48 56 45 35 36 48 67 77 113 87 113 132 152 165 172 174 180 182 180 185 178 159 158 216 207 207 214 213 215 218 215 214 220 217 220 220 219 225 224 224 239 236 238 244 244 242 248 253 261 265 242 247 250 249
61 53 50 49 46 67 68 90 92 94 112 122 131 140 150 152 152 154 165 165 171 148 171 199 198 200 206 204 221 216 220 214 215 213 210 215 217 207 206 214 224 218 228 238 236 236 244 250 261 268 261 256 251 251
77 66 63 61 60 64 90 88 98 100 104 114 115 125 139 145 141 162 168 170 172 162 182 167 191 200 209 213 226 221 218 216 219 221 216 215 212 218 220 225 223 232 237 237 240 233 239 250 263 266 262 262 262 258
88 77 73 73 74 77 81 104 100 90 106 114 129 132 140 148 149 157 161 169 177 178 184 189 184 197 208 217 222 226 231 235 233 228 222 208 201 228 227 226 231 232 234 239 239 233 233 241 253 255 258 247 249 245
78 78 75 87 91 94 93 92 101 96 94 104 96 119 123 128 146 160 162 162 177 180 171 180 196 204 206 219 225 233 236 235 228 227 220 219 208 211 218 217 223 234 235 230 227 227 228 234 245 254 251 250 251 254
90 85 85 84 89 96 103 107 108 108 110 112 118 121 136 144 149 162 176 185 194 200 212 217 206 207 216 240 243 240 239 230 224 223 225 216 212 215 223 227 231 241 232 243 247 238 233 237 246 255 262 264 261 255
90 95 95 97 103 107 108 109 115 119 122 124 128 138 140 150 156 163 173 181 190 198 209 205 211 228 236 228 207 191 189 231 227 229 229 212 204 214 208 220 217 224 230 240 238 233 236 242 247 252 257 258 256 255
86 84 88 98 104 111 123 129 131 131 128 132 141 151 156 162 168 174 179 187 192 194 202 212 214 219 207 226 205 194 195 224 231 238 223 210 203 230 219 221 228 234 229 240 236 232 227 234 237 242 250 253 255 258
84 88 101 103 108 113 119 130 144 152 149 141 140 148 159 167 169 180 190 205 194 148 161 176 161 144 140 327 200 200 209 213 223 236 218 217 224 226 237 233 241 244 241 238 234 228 230 235 243 253 258 261 265 269
62 55 101 105 124 125 120 132 146 160 155 150 149 141 139 135 138 146 153 157 132 114 118 124 125 164 182 173 196 204 220 216 212 233 216 218 218 217 222 234 240 246 253 253 255 254 256 256 261 265 268 270 271 273
62 65 89 116 108 109 90 130 119 123 149 155 149 149 146 145 136 129 130 139 136 130 119 118 97 104 150 184 208 209 217 221 226 224 233 217 225 237 247 251 252 252 256 245 256 270 258 255 260 263 266 267 266 266
68 77 78 89 101 111 108 101 112 112 129 143 150 152 152 143 128 130 138 135 135 135 116 127 116 125 153 112 75 187 194 239 258 268 262 241 248 250 247 242 238 234 244 259 259 248 254 258 263 269 270 270 270 271
84 80 86 89 90 96 94 94 97 103 110 122 146 153 146 141 138 128 132 142 151 134 131 126 126 114 117 124 172 159 266 272 294 304 307 299 294 302 297 271 255 253 255 258 263 264 264 267 270 270 270 271 272 273
87 87 89 90 88 89 88 86 88 93 95 100 109 120 128 127 127 130 133 126 124 112 97 71 51 47 34 27 7 251 249 266 275 282 300 301 301 297 290 280 276 273 269 267 268 270 271 271 271 272 273 274 274 275
90 89 86 87 84 88 88 88 96 104 103 102 103 107 116 122 124 126 127 133 126 124 90 76 62 39 39 45 50 40 36 21 7 352 341 331 321 316 315 316 313 310 306 301 296 292 288 287 285 283 281 280 281 280
101 98 95 95 97 98 96 100 100 102 107 110 112 117 125 131 131 128 118 108 97 92 82 69 59 39 5 1 356 349 340 332 326 323 321 316 308 306 306 306 305 302 298 294 288 284 282 281 280 279 279 279 279 280
106 105 108 103 96 103 102 102 104 108 110 111 109 109 108 110 115 114 108 86 73 69 53 4 351 344 340 336 332 328 324 320 316 312 309 306 303 299 296 293 288 283 278 276 274 274 274 275 276 277 279 281 283 285
109 105 103 110 115 109 105 104 105 108 111 114 114 116 115 110 107 106 102 106 71 2 347 343 338 332 327 324 320 317 314 312 309 306 303 299 296 293 290 287 285 282 279 277 276 275 276 278 280 282 285 287 288 290
123 122 114 121 125 122 121 115 114 113 114 111 108 104 96 84 71 54 32 2 343 336 331 327 322 318 315 314 313 310 309 306 305 304 303 302 299 295 291 287 284 282 281 281 280 280 280 281 282 284 286 289 291 293
143 136 132 135 137 132 130 120 114 116 110 104 97 78 52 26 8 357 346 336 332 327 324 323 321 321 321 319 317 315 313 313 312 308 306 302 299 295 290 286 284 282 281 282 283 284 286 288 290 292 293 294 295 296
162 155 154 157 151 142 127 114 111 98 82 62 40 9 357 350 347 342 335 331 328 325 325 324 324 322 320 318 316 316 316 312 310 310 307 304 302 303 302 299 296 294 292 292 291 291 291 292 292 293 295 297 300 303
168 172 169 169 159 148 137 106 72 28 7 359 352 346 344 342 338 332 328 326 324 324 324 324 322 320 319 319 318 314 313 314 311 308 305 299 298 301 303 304 305 304 302 300 300 299 298 299 301 303 306 308 309 310
182 185 182 182 185 210 253 297 330 341 342 342 339 339 338 334 330 327 324 323 323 323 323 323 323 323 320 318 316 314 313 310 306 302 298 294 294 295 295 295 297 299 300 301 304 308 311 310 312 312 314 313 314 314
185 192 201 216 234 259 284 308 320 326 329 332 331 329 330 328 325 322 321 322 324 324 324 327 328 324 323 322 321 318 315 310 304 300 295 293 293 295 295 296 299 302 308 309 308 311 313 315 315 314 315 316 316 317
195 206 223 245 262 275 288 303 310 314 318 321 320 320 323 324 322 322 321 322 324 326 329 332 329 329 329 329 331 331 327 319 311 307 305 302 301 302 306 309 307 306 304 308 311 314 316 317 318 317 318 319 320 320
210 225 242 258 268 280 291 298 302 306 311 315 313 311 316 320 321 321 322 325 328 331 335 334 331 330 330 327 336 344 353 356 355 354 358 348 329 323 321 313 310 311 310 310 313 314 317 319 320 321 320 320 321 321
226 243 254 263 274 281 289 294 297 302 308 312 310 312 314 317 319 321 325 328 331 336 338 333 330 329 322 319 326 330 330 327 329 333 335 337 329 320 316 315 313 313 313 312 314 315 318 319 320 319 320 320 320 320
240 248 257 268 277 283 287 293 299 304 307 310 311 312 315 318 320 323 327 330 335 338 337 332 328 327 318 314 321 321 317 314 314 315 315 315 314 313 314 313 313 312 313 313 315 316 317 318 318 319 319 320 320 320